Погода в Новодонецкой

Россия / Краснодарский край     45°41′58″N   39°46′56″E
темп.,
°C
ветер,
м/с
пор.,
м/с
влажн.,
%
обл.,
%
осадки,
мм/ч
давл.,
гПа
погр.,
м
18 мая, ср
ср1800:00+11юз379473 0.0 1015141
03:00+10юз349141 0.0 101452
06:00+12ю2689100 0.0 1013194
09:00+13ююв2491100 0.6 1013151
12:00+16ю3577100 0.1 1012472
15:00+16сз3582100 0.7 1011394
18:00+14ссв3392100 0.6 1011153
21:00+12вюв3396100 1.7 101165
19 мая, чт
чт1900:00+12ю3595100 0.1 1011141
03:00+11з51096100 0.1 1012446
06:00+10зюз5109279 0.3 1014413
09:00+13зюз5873100 0.3 10161206
12:00+14юз71067100 0.5 10171411
15:00+15зюз81266100 0.9 10161692
18:00+13з61079100 0.5 10171015
21:00+10зюз71290100 0.8 1018491
20 мая, пт
пт2000:00+11з7128973 0.3 1018511
03:00+9зюз599779 0.4 1019238
06:00+9зюз4992100 0.0 1020226
09:00+14з6978100 1.0 1020854
12:00+16зсз7963100 1.3 10211467
15:00+15зсз6106899 1.8 1020583
18:00+16зсз47695 0.3 1020407
21:00+11з3684100 0.4 102188
21 мая, сб
сб2100:00+9юз49905 0.0 1020154
03:00+9юз51386100 0.0 1019279
06:00+11юз7178578 0.0 1018582
09:00+14юз91678100 0.0 1017772
12:00+20зюз11166321 0.1 10141704
15:00+19зюз121764100 0.1 10131496
18:00+16зюз10166655 0.0 10131023
21:00+14юз91864100 0.0 1012811
22 мая, вс
вс2200:00+14юз81763100 0.0 1011725
03:00+14юз71563100 0.0 1010642
06:00+13юз7167694 0.2 1009607
09:00+13юз6167886 0.8 1007552
12:00+18зюз7136238 0.0 1005900
15:00+22зюз8135461 0.0 10041426
18:00+19юз71261100 0.0 1003618
21:00+17зюз51260100 0.0 1004508